Terminal Aerodrome Forecast
Issued by NWS Cheyenne, WY

Home | Current Version | Previous Version | Text Only | Print | Product List | Glossary On
Versions: 1 2 3 4 5 6 7 8 9 10 11 12 13 14 15 16 17 18 19 20 21 22 23 24 25 26 27 28 29 30 31 32 33
000
FTUS45 KCYS 261720
TAFCYS
TAF
KCYS 261720Z 2618/2718 31022G35KT P6SM BKN070
     FM262300 29014KT P6SM SCT100
     FM271600 31016G30KT P6SM BKN200=

USA.gov is the U.S. government's official web portal to all federal, state and local government web resources and services.